Weatherford, OK

4:40 AM CDT on June 28, 2017 (GMT -0500)
Weatherford

Weather History for KOJA - October, 2012

Change the Weather History Date:

Saturday, October 6, 2012

  Actual Average (KJWG) Record (KJWG)
Temperature  
Mean Temperature 44 °F -  
Max Temperature 48 °F 76 °F 91 °F (1963)
Min Temperature 39 °F 51 °F 35 °F (2001)
Degree Days  
Heating Degree Days 22    
Moisture  
Dew Point 33 °F    
Average Humidity 63    
Maximum Humidity 75    
Minimum Humidity 53    
Precipitation  
Precipitation 0.00 in - - ()
Sea Level Pressure  
Sea Level Pressure 30.29 in    
Wind  
Wind Speed 10 mph (NE)    
Max Wind Speed 16 mph    
Max Gust Speed 21 mph    
Visibility 10 miles    
Events      
Averages and records for this station are not official NWS values.
T = Trace of Precipitation, MM = Missing Value Source: NWS Daily Summary

Daily Weather History Graph

Daily Weather History Graph

Search for Another Location

Airport or City:

Trip Planner

Search our weather history database for the weather conditions in past years. The results will help you decide how hot, cold, wet, or windy it might be!

Date:

Astronomy

Oct. 06, 2012 Rise Set
Actual Time 7:34 AM CDT 7:10 PM CDT
Civil Twilight 7:08 AM CDT 7:36 PM CDT
Nautical Twilight 6:39 AM CDT 8:05 PM CDT
Astronomical Twilight 6:09 AM CDT 8:35 PM CDT
Moon 11:36 PM CDT (10/6) 1:20 PM CDT (10/6)
Length of Visible Light 12h 27m
Length of Day
11h 36m
Waning Gibbous, 65% of the Moon is Illuminated
Oct 6
Waning Gibbous
Oct 8
Last Quarter
Oct 15
New
Oct 21
First Quarter
Oct 29
Full

Hourly Weather History & Observations

Time (CDT) Temp. Windchill Dew Point Humidity Pressure Visibility Wind Dir Wind Speed Gust Speed Precip Events Conditions
12:15 AM 46.4 °F 41.5 °F 33.8 °F 62% 30.25 in 10.0 mi NE 10.4 mph 16.1 mph N/A   Clear
12:35 AM 46.4 °F 41.9 °F 33.8 °F 62% 30.25 in 10.0 mi NE 9.2 mph - N/A   Clear
12:55 AM 44.6 °F 39.7 °F 33.8 °F 66% 30.26 in 10.0 mi NE 9.2 mph - N/A   Clear
1:15 AM 44.6 °F 39.7 °F 33.8 °F 66% 30.26 in 10.0 mi NNE 9.2 mph - N/A   Clear
1:35 AM 44.6 °F 39.7 °F 32.0 °F 61% 30.26 in 10.0 mi NNE 9.2 mph - N/A   Clear
1:55 AM 42.8 °F 36.6 °F 32.0 °F 66% 30.27 in 10.0 mi North 11.5 mph - N/A   Clear
2:15 AM 42.8 °F 37.0 °F 32.0 °F 66% 30.27 in 10.0 mi NNE 10.4 mph - N/A   Clear
2:55 AM 42.8 °F 37.5 °F 32.0 °F 66% 30.28 in 10.0 mi NNE 9.2 mph - N/A   Clear
3:15 AM 42.8 °F 37.5 °F 33.8 °F 70% 30.27 in 10.0 mi NE 9.2 mph - N/A   Clear
3:35 AM 42.8 °F 37.5 °F 33.8 °F 70% 30.27 in 10.0 mi NE 9.2 mph - N/A   Clear
3:55 AM 42.8 °F 38.0 °F 33.8 °F 70% 30.27 in 10.0 mi NE 8.1 mph - N/A   Clear
4:15 AM 42.8 °F 37.0 °F 33.8 °F 70% 30.25 in 10.0 mi NE 10.4 mph 17.3 mph N/A   Clear
4:35 AM 42.8 °F 36.6 °F 33.8 °F 70% 30.24 in 10.0 mi NNE 11.5 mph - N/A   Mostly Cloudy
5:15 AM 42.8 °F 35.4 °F 33.8 °F 70% 30.24 in 10.0 mi NE 15.0 mph 18.4 mph N/A   Overcast
5:35 AM 42.8 °F 37.0 °F 33.8 °F 70% 30.25 in 10.0 mi NE 10.4 mph - N/A   Overcast
5:55 AM 42.8 °F 37.0 °F 33.8 °F 70% 30.26 in 10.0 mi NE 10.4 mph - N/A   Overcast
6:15 AM 42.8 °F 38.6 °F 33.8 °F 70% 30.27 in 10.0 mi NE 6.9 mph - N/A   Overcast
6:35 AM 44.6 °F 40.2 °F 33.8 °F 66% 30.27 in 10.0 mi ENE 8.1 mph - N/A   Overcast
6:55 AM 44.6 °F 40.2 °F 33.8 °F 66% 30.28 in 10.0 mi NE 8.1 mph - N/A   Overcast
7:15 AM 44.6 °F 39.7 °F 33.8 °F 66% 30.28 in 10.0 mi NE 9.2 mph - N/A   Overcast
7:35 AM 44.6 °F 40.7 °F 33.8 °F 66% 30.28 in 10.0 mi NE 6.9 mph - N/A   Overcast
7:55 AM 44.6 °F 39.7 °F 33.8 °F 66% 30.28 in 10.0 mi NE 9.2 mph - N/A   Overcast
8:15 AM 42.8 °F 38.0 °F 33.8 °F 70% 30.28 in 10.0 mi NE 8.1 mph - N/A   Overcast
8:35 AM 44.6 °F 39.7 °F 33.8 °F 66% 30.28 in 10.0 mi NE 9.2 mph - N/A   Overcast
8:55 AM 44.6 °F 40.7 °F 33.8 °F 66% 30.29 in 10.0 mi NE 6.9 mph - N/A   Overcast
9:15 AM 44.6 °F 40.2 °F 33.8 °F 66% 30.29 in 10.0 mi NE 8.1 mph - N/A   Overcast
9:35 AM 44.6 °F 39.7 °F 33.8 °F 66% 30.30 in 10.0 mi NE 9.2 mph - N/A   Overcast
9:55 AM 44.6 °F 39.2 °F 33.8 °F 66% 30.30 in 10.0 mi NE 10.4 mph - N/A   Overcast
10:15 AM 44.6 °F 39.7 °F 33.8 °F 66% 30.31 in 10.0 mi NNE 9.2 mph - N/A   Overcast
10:35 AM 44.6 °F 38.8 °F 33.8 °F 66% 30.31 in 10.0 mi NE 11.5 mph - N/A   Overcast
10:55 AM 46.4 °F 41.5 °F 33.8 °F 62% 30.32 in 10.0 mi NE 10.4 mph 16.1 mph N/A   Overcast
11:15 AM 46.4 °F 40.7 °F 33.8 °F 62% 30.31 in 10.0 mi NE 12.7 mph - N/A   Overcast
11:35 AM 46.4 °F 40.7 °F 32.0 °F 57% 30.31 in 10.0 mi NE 12.7 mph - N/A   Overcast
11:55 AM 46.4 °F 40.4 °F 32.0 °F 57% 30.30 in 10.0 mi NNE 13.8 mph 18.4 mph N/A   Overcast
12:15 PM 46.4 °F 39.8 °F 33.8 °F 62% 30.30 in 10.0 mi NE 16.1 mph - N/A   Overcast
12:35 PM 46.4 °F 41.1 °F 32.0 °F 57% 30.30 in 10.0 mi NE 11.5 mph - N/A   Overcast
12:55 PM 46.4 °F 40.7 °F 32.0 °F 57% 30.30 in 10.0 mi NNE 12.7 mph - N/A   Overcast
1:15 PM 46.4 °F 40.4 °F 32.0 °F 57% 30.31 in 10.0 mi NNE 13.8 mph - N/A   Overcast
1:35 PM 46.4 °F 40.4 °F 32.0 °F 57% 30.30 in 10.0 mi NE 13.8 mph 19.6 mph N/A   Overcast
1:55 PM 46.4 °F 40.1 °F 32.0 °F 57% 30.29 in 10.0 mi ENE 15.0 mph 19.6 mph N/A   Overcast
2:15 PM 46.4 °F 40.4 °F 30.2 °F 53% 30.29 in 10.0 mi NE 13.8 mph - N/A   Overcast
2:55 PM 46.4 °F 39.8 °F 32.0 °F 57% 30.27 in 10.0 mi NE 16.1 mph 19.6 mph N/A   Overcast
3:15 PM 46.4 °F 40.4 °F 32.0 °F 57% 30.27 in 10.0 mi NE 13.8 mph 19.6 mph N/A   Overcast
3:35 PM 46.4 °F 39.8 °F 32.0 °F 57% 30.25 in 10.0 mi NE 16.1 mph - N/A   Overcast
3:55 PM 46.4 °F 39.8 °F 32.0 °F 57% 30.26 in 10.0 mi NE 16.1 mph 19.6 mph N/A   Overcast
4:15 PM 48.2 °F - 32.0 °F 54% 30.26 in 10.0 mi ENE 13.8 mph 20.7 mph N/A   Overcast
4:35 PM 48.2 °F - 32.0 °F 54% 30.26 in 10.0 mi ENE 16.1 mph 20.7 mph N/A   Overcast
4:55 PM 48.2 °F - 32.0 °F 54% 30.26 in 10.0 mi ENE 15.0 mph - N/A   Overcast
5:15 PM 46.4 °F 40.1 °F 30.2 °F 53% 30.26 in 10.0 mi NE 15.0 mph - N/A   Overcast
5:35 PM 46.4 °F 40.1 °F 32.0 °F 57% 30.26 in 10.0 mi NE 15.0 mph 19.6 mph N/A   Overcast
5:55 PM 46.4 °F 40.1 °F 32.0 °F 57% 30.27 in 10.0 mi NE 15.0 mph 18.4 mph N/A   Overcast
6:15 PM 46.4 °F 40.1 °F 32.0 °F 57% 30.27 in 10.0 mi NE 15.0 mph - N/A   Overcast
6:35 PM 46.4 °F 41.1 °F 32.0 °F 57% 30.28 in 10.0 mi NE 11.5 mph - N/A   Overcast
6:55 PM 46.4 °F 40.7 °F 32.0 °F 57% 30.28 in 10.0 mi NE 12.7 mph 17.3 mph N/A   Overcast
7:15 PM 46.4 °F 40.4 °F 32.0 °F 57% 30.28 in 10.0 mi NE 13.8 mph 18.4 mph N/A   Overcast
7:35 PM 46.4 °F 41.1 °F 32.0 °F 57% 30.29 in 10.0 mi NNE 11.5 mph 19.6 mph N/A   Overcast
7:55 PM 44.6 °F 38.4 °F 32.0 °F 61% 30.29 in 10.0 mi NE 12.7 mph - N/A   Overcast
8:35 PM 44.6 °F 39.7 °F 32.0 °F 61% 30.31 in 10.0 mi NE 9.2 mph - N/A   Overcast
8:55 PM 44.6 °F 40.2 °F 32.0 °F 61% 30.31 in 10.0 mi NE 8.1 mph - N/A   Overcast
9:15 PM 44.6 °F 40.7 °F 32.0 °F 61% 30.32 in 10.0 mi NE 6.9 mph - N/A   Overcast
9:35 PM 44.6 °F 41.4 °F 32.0 °F 61% 30.33 in 10.0 mi NE 5.8 mph - N/A   Overcast
9:55 PM 44.6 °F 40.7 °F 32.0 °F 61% 30.33 in 10.0 mi NE 6.9 mph - N/A   Overcast
10:15 PM 42.8 °F 37.5 °F 33.8 °F 70% 30.33 in 10.0 mi NE 9.2 mph - N/A   Overcast
10:35 PM 42.8 °F 38.0 °F 32.0 °F 66% 30.34 in 10.0 mi NE 8.1 mph - N/A   Scattered Clouds
10:55 PM 41.0 °F 37.1 °F 32.0 °F 70% 30.34 in 10.0 mi NE 5.8 mph - N/A   Clear
11:35 PM 39.2 °F 35.9 °F 32.0 °F 75% 30.36 in 10.0 mi North 4.6 mph - N/A   Clear
11:55 PM 39.2 °F - 32.0 °F 75% 30.35 in 10.0 mi Calm Calm - N/A   Clear